[[{"header":{"parameterUnit":"m.s-1","parameterCategory":2,"la1":30.2991,"la2":30.254,"lo1":-89.0895,"lo2":-89.0444,"dy":0.0017,"dx":0.0017,"nx":28,"ny":28,"refTime":"2025-01-01T09:00:00:Z","depth":"0","parameterNumber":2,"parameterNumberName":"U-component_of_CURRENTS"},"data":[0,0,0,0,0,0,0,0,0,0,0,0,0,0,0,0,0,0,0,0,0,0,0,0,0,0,0,0,0,0,0,0,0,0,0,0,0,0,0,0,0,0,0,0,0,0,0,0,0,0,0,0,0,0,0,0,0,0,-0.261,-0.2611,0,-0.2642,-0.2643,-0.2643,-0.2644,-0.2644,-0.2643,-0.2643,-0.26,-0.2599,-0.2599,0,0,0,0,0,0,0,0,0,0,0,0,0,-0.2561,-0.2562,-0.261,-0.2611,-0.2611,-0.2642,-0.2643,-0.2643,-0.2644,-0.2644,-0.2643,-0.2643,-0.26,-0.2599,-0.2598,0,0,0,0,0,0,0,0,0,0,0,0,0,-0.2587,-0.2562,-0.261,-0.2615,-0.2615,-0.2642,-0.2643,-0.2643,-0.2645,-0.2644,-0.2643,-0.2643,-0.26,-0.2599,-0.2598,-0.2605,0,0,-0.2595,-0.2595,0,0,0,0,0,0,0,0,-0.2586,-0.2589,-0.2614,-0.2615,-0.2615,-0.2638,-0.2609,-0.2627,-0.2645,-0.2634,-0.2643,-0.2642,-0.2606,-0.2604,-0.2614,-0.2603,-0.2601,-0.2595,-0.2594,-0.2594,-0.2593,0,0,0,0,0,0,0,-0.2584,-0.2588,-0.2624,-0.2614,-0.2615,-0.2619,-0.2622,-0.2613,-0.2623,-0.2635,-0.2635,-0.2638,-0.2606,-0.2615,-0.2613,-0.2601,-0.2595,-0.2594,-0.2593,-0.2593,-0.2585,-0.2586,0,0,0,0,0,0,-0.2579,-0.2586,-0.2623,-0.2625,-0.2598,-0.262,-0.2623,-0.2632,-0.2624,-0.2623,-0.2638,-0.2638,-0.2617,-0.2614,-0.2611,-0.2595,-0.2594,-0.2593,-0.2592,-0.2585,-0.2585,-0.2586,0,0,0,0,0,0,-0.2578,-0.2582,-0.2621,-0.2605,-0.261,-0.2621,-0.2631,-0.2633,-0.2639,-0.2627,-0.2624,-0.2642,-0.2617,-0.2612,-0.2602,-0.2594,-0.2592,-0.2591,-0.2584,-0.2585,-0.2586,-0.2578,0,0,0,0,0,0,-0.2576,-0.2582,-0.258,-0.2605,-0.2611,-0.2626,-0.2632,-0.2634,-0.2642,-0.2641,-0.2629,-0.2625,-0.2616,-0.2604,-0.2601,-0.2592,-0.259,-0.2584,-0.2585,-0.2585,-0.2578,-0.2578,-0.2579,0,0,0,0,0,-0.2574,-0.2567,-0.258,-0.2584,-0.2611,-0.2626,-0.2629,-0.2635,-0.2642,-0.264,-0.2639,-0.2625,-0.2607,-0.2603,-0.26,-0.2591,-0.2583,-0.2584,-0.2585,-0.2577,-0.2578,-0.2579,0,0,0,0,0,0,-0.253,-0.2567,-0.2582,-0.2583,-0.2602,-0.2625,-0.2621,-0.2637,-0.2638,-0.2634,-0.2629,-0.2625,-0.2614,-0.2609,-0.2605,-0.2594,-0.2594,-0.2594,-0.2589,-0.259,-0.259,-0.2574,-0.259,0,0,0,0,0,-0.2526,-0.2533,-0.257,-0.2565,-0.2579,-0.2605,-0.2611,-0.2621,-0.2629,-0.263,-0.2625,-0.2621,-0.2618,-0.2608,-0.2603,-0.2594,-0.2562,-0.2589,-0.259,-0.259,-0.2577,-0.2532,-0.2526,-0.2589,-0.2589,-0.2589,0,0,-0.2502,-0.2525,-0.2526,-0.2557,-0.2574,-0.2583,-0.2606,-0.2614,-0.2613,-0.2623,-0.2612,-0.262,-0.2618,-0.2609,-0.2604,-0.2601,-0.2555,-0.2592,-0.2592,-0.2578,-0.2532,-0.2526,-0.252,-0.259,-0.259,-0.259,0,0,-0.2454,-0.2488,-0.2479,-0.2503,-0.2532,-0.2557,-0.2561,-0.259,-0.2595,-0.2594,-0.2606,-0.2608,-0.26,-0.2599,-0.2598,-0.2599,-0.2562,-0.2605,-0.2587,-0.2544,-0.2538,-0.2532,-0.2472,-0.2461,-0.2601,-0.2601,-0.2601,0,-0.2417,-0.2415,-0.2474,-0.2478,-0.2482,-0.2545,-0.2531,-0.2559,-0.2576,-0.257,-0.2582,-0.2583,-0.259,-0.2578,-0.2591,-0.2596,-0.2562,-0.2582,-0.2542,-0.2535,-0.2529,-0.247,-0.2457,-0.2601,-0.2601,-0.2601,-0.2601,0,-0.2372,-0.2369,-0.2366,-0.2397,-0.2422,-0.2414,-0.2472,-0.2486,-0.2507,-0.2525,-0.2519,-0.2541,-0.253,-0.2553,-0.2575,-0.2549,-0.2534,-0.2548,-0.2533,-0.2522,-0.2461,-0.2448,-0.2601,-0.2601,-0.2601,-0.2601,0,0,-0.226,-0.2317,-0.2309,-0.2305,-0.2371,-0.2377,-0.2401,-0.2417,-0.241,-0.2447,-0.2418,-0.2459,-0.2477,-0.2479,-0.251,-0.2501,-0.2446,-0.2513,-0.2511,-0.2441,-0.2331,-0.2272,-0.2252,-0.2451,-0.2449,-0.2447,-0.23,0,-0.2183,-0.2159,-0.222,-0.2192,-0.2181,-0.2262,-0.2272,-0.2311,-0.2344,-0.2342,-0.2386,-0.2379,-0.2447,-0.2441,-0.2444,-0.2455,-0.2414,-0.2483,-0.2363,-0.2358,-0.2298,-0.2236,-0.2148,-0.2006,-0.2288,-0.2285,-0.2284,0,-0.2088,-0.2092,-0.2052,-0.2073,-0.2077,-0.2086,-0.2109,-0.213,-0.2182,-0.22,-0.2226,-0.2265,-0.2281,-0.233,-0.2307,-0.2348,-0.2326,-0.2333,-0.2327,-0.2263,-0.2276,-0.2067,-0.1972,-0.1971,-0.2264,-0.2265,-0.2267,0,-0.1946,-0.1953,-0.1911,-0.1923,-0.1982,-0.1976,-0.2008,-0.207,-0.2087,-0.2112,-0.2118,-0.214,-0.2145,-0.2141,-0.2194,-0.2229,-0.2153,-0.2189,-0.2101,-0.2096,-0.199,-0.1979,-0.1867,-0.2118,-0.2118,-0.2119,-0.2119,0,-0.1815,-0.1776,-0.1841,-0.1824,-0.179,-0.1866,-0.1846,-0.1889,-0.194,-0.1953,-0.2031,-0.2037,-0.2101,-0.2098,-0.2126,-0.2072,-0.208,-0.2065,-0.2044,-0.1986,-0.1977,-0.1949,-0.199,-0.2113,-0.2115,-0.2116,-0.2117,0,-0.1661,-0.1693,-0.1663,-0.1712,-0.1724,-0.1708,-0.1776,-0.1773,-0.1829,-0.1847,-0.1853,-0.1933,-0.1928,-0.1974,-0.196,-0.1963,-0.1889,-0.1901,-0.1826,-0.1799,-0.1712,-0.1756,-0.1609,-0.1561,-0.1746,-0.1743,-0.1741,0,-0.1574,-0.1542,-0.1587,-0.1587,-0.161,-0.1614,-0.1628,-0.1704,-0.1725,-0.1793,-0.1791,-0.1802,-0.1809,-0.1765,-0.1761,-0.1717,-0.1769,-0.1603,-0.1655,-0.1659,-0.1693,-0.1736,-0.1711,-0.1506,-0.1502,-0.1499,-0.1496,0,-0.1438,-0.1464,-0.1467,-0.1472,-0.1482,-0.1494,-0.1522,-0.1527,-0.1619,-0.1633,-0.1656,-0.1659,-0.1638,-0.1576,-0.153,-0.151,-0.156,-0.1535,-0.155,-0.1489,-0.1514,-0.1475,-0.1657,-0.1468,-0.1471,-0.1473,-0.1475,-0.1476,-0.135,-0.1336,-0.1357,-0.1352,-0.1366,-0.1367,-0.1347,-0.1395,-0.1405,-0.1427,-0.1497,-0.1484,-0.146,-0.1387,-0.1352,-0.1266,-0.1342,-0.1246,-0.1292,-0.1331,-0.13,-0.1413,-0.121,-0.1211,-0.1212,-0.1213,-0.1214,0,-0.1241,-0.1245,-0.1238,-0.1239,-0.1217,-0.1259,-0.1271,-0.1246,-0.1227,-0.1278,-0.1282,-0.1289,-0.1205,-0.1199,-0.1124,-0.1062,-0.1049,-0.1046,-0.1092,-0.1074,-0.1158,-0.1165,-0.0929,-0.0929,-0.0929,-0.0929,-0.0929,-0.0929,-0.1186,-0.1149,-0.1153,-0.1089,-0.1087,-0.1033,-0.1019,-0.1,-0.1015,-0.1009,-0.1045,-0.1107,-0.1132,-0.1179,-0.1075,-0.1002,-0.1,-0.0946,-0.0992,-0.1084,-0.1108,-0.113,-0.1145,-0.0909,-0.0909,-0.0853,-0.0853,-0.0853]},{"header":{"parameterUnit":"m.s-1","parameterCategory":2,"la1":30.2991,"la2":30.254,"lo1":-89.0895,"lo2":-89.0444,"dy":0.0017,"dx":0.0017,"nx":28,"ny":28,"refTime":"2025-01-01T09:00:00:Z","depth":"0","parameterNumber":3,"parameterNumberName":"V-component_of_CURRENTS"},"data":[0,0,0,0,0,0,0,0,0,0,0,0,0,0,0,0,0,0,0,0,0,0,0,0,0,0,0,0,0,0,0,0,0,0,0,0,0,0,0,0,0,0,0,0,0,0,0,0,0,0,0,0,0,0,0,0,0,0,-0.0651,-0.065,0,-0.0565,-0.0565,-0.0564,-0.0529,-0.0529,-0.0529,-0.0529,-0.0358,-0.0354,-0.0349,0,0,0,0,0,0,0,0,0,0,0,0,0,-0.0752,-0.0751,-0.0651,-0.065,-0.0649,-0.0566,-0.0565,-0.0564,-0.0529,-0.0529,-0.0529,-0.0529,-0.036,-0.0354,-0.0349,0,0,0,0,0,0,0,0,0,0,0,0,0,-0.0693,-0.075,-0.0651,-0.062,-0.0616,-0.0566,-0.0564,-0.0563,-0.0529,-0.0529,-0.0529,-0.0529,-0.0361,-0.0355,-0.0348,-0.0304,0,0,-0.0327,-0.0324,0,0,0,0,0,0,0,0,-0.0697,-0.069,-0.0626,-0.0622,-0.0618,-0.0556,-0.0537,-0.0472,-0.0529,-0.0564,-0.0529,-0.0529,-0.0415,-0.0404,-0.0391,-0.0296,-0.0289,-0.0326,-0.0322,-0.0319,-0.0317,0,0,0,0,0,0,0,-0.0701,-0.0693,-0.0619,-0.0625,-0.062,-0.0599,-0.0591,-0.0525,-0.049,-0.0561,-0.0558,-0.0546,-0.0413,-0.0398,-0.0387,-0.0286,-0.0326,-0.032,-0.0316,-0.0313,-0.0168,-0.0169,0,0,0,0,0,0,-0.0709,-0.0697,-0.0622,-0.0616,-0.0656,-0.0597,-0.0589,-0.0578,-0.0493,-0.048,-0.0546,-0.0544,-0.041,-0.0395,-0.0381,-0.0352,-0.0319,-0.0313,-0.0309,-0.0168,-0.0168,-0.0169,0,0,0,0,0,0,-0.0712,-0.0703,-0.0625,-0.0653,-0.0642,-0.0595,-0.0583,-0.0576,-0.0561,-0.0481,-0.0468,-0.0538,-0.041,-0.039,-0.0328,-0.0344,-0.0309,-0.0303,-0.0168,-0.0168,-0.0169,-0.0275,0,0,0,0,0,0,-0.0715,-0.0705,-0.0701,-0.0654,-0.064,-0.06,-0.0583,-0.0574,-0.0552,-0.0549,-0.047,-0.0454,-0.0408,-0.0339,-0.0322,-0.0334,-0.0298,-0.0167,-0.0168,-0.0168,-0.0272,-0.0279,-0.0286,0,0,0,0,0,-0.0719,-0.0715,-0.0701,-0.0692,-0.0636,-0.06,-0.0591,-0.056,-0.0552,-0.0547,-0.0496,-0.0457,-0.0331,-0.0333,-0.0313,-0.0323,-0.0167,-0.0168,-0.0168,-0.0268,-0.0278,-0.0286,0,0,0,0,0,0,-0.0754,-0.0709,-0.0694,-0.0675,-0.0642,-0.0594,-0.0585,-0.0562,-0.052,-0.0517,-0.0448,-0.0429,-0.0386,-0.0333,-0.0338,-0.0283,-0.0246,-0.0243,-0.0329,-0.0337,-0.0345,-0.0341,-0.0292,0,0,0,0,0,-0.076,-0.0749,-0.07,-0.0687,-0.0673,-0.063,-0.0611,-0.059,-0.0545,-0.0528,-0.0473,-0.0417,-0.0372,-0.0339,-0.0286,-0.0243,-0.0186,-0.0239,-0.0247,-0.0253,-0.0236,-0.0176,-0.0176,-0.0171,-0.0171,-0.0171,0,0,-0.0768,-0.0743,-0.0736,-0.0694,-0.0668,-0.0652,-0.062,-0.0596,-0.0582,-0.0512,-0.0477,-0.0435,-0.0366,-0.0332,-0.0308,-0.0289,-0.0228,-0.0254,-0.0261,-0.0239,-0.0177,-0.0177,-0.0178,-0.0171,-0.0171,-0.0171,0,0,-0.0777,-0.076,-0.075,-0.073,-0.0692,-0.067,-0.0665,-0.0618,-0.0598,-0.0554,-0.0516,-0.0481,-0.0396,-0.0364,-0.0334,-0.0342,-0.0271,-0.0331,-0.036,-0.0303,-0.0303,-0.0302,-0.0249,-0.0243,-0.0334,-0.0334,-0.0334,0,-0.0788,-0.0763,-0.0742,-0.073,-0.0711,-0.0682,-0.0666,-0.0648,-0.0588,-0.0562,-0.0554,-0.0455,-0.0412,-0.037,-0.0388,-0.036,-0.0311,-0.0339,-0.0314,-0.0312,-0.0309,-0.0254,-0.0246,-0.0339,-0.0338,-0.0338,-0.0337,0,-0.0785,-0.0767,-0.0763,-0.074,-0.0727,-0.0708,-0.0681,-0.0664,-0.064,-0.0609,-0.056,-0.0509,-0.0446,-0.0448,-0.042,-0.0388,-0.0356,-0.0336,-0.0297,-0.0316,-0.0257,-0.0246,-0.0346,-0.0345,-0.0343,-0.0342,0,0,-0.0788,-0.0762,-0.0758,-0.0748,-0.0725,-0.0714,-0.0703,-0.0665,-0.065,-0.0612,-0.0575,-0.0535,-0.0508,-0.0472,-0.0443,-0.0408,-0.0374,-0.0371,-0.0366,-0.0327,-0.0244,-0.0216,-0.0201,-0.035,-0.0348,-0.0347,-0.0218,0,-0.078,-0.076,-0.0748,-0.0737,-0.0722,-0.0706,-0.0698,-0.0674,-0.0644,-0.0611,-0.0569,-0.0529,-0.0518,-0.0497,-0.0462,-0.0391,-0.0346,-0.041,-0.0221,-0.0215,-0.0195,-0.0188,-0.0164,-0.0045,-0.0206,-0.0205,-0.0203,0,-0.0759,-0.0754,-0.0735,-0.0722,-0.0715,-0.0716,-0.0692,-0.0681,-0.0642,-0.0615,-0.0574,-0.0535,-0.0488,-0.0478,-0.0355,-0.0395,-0.0321,-0.027,-0.0263,-0.0184,-0.0166,-0.0046,-0.0019,0.0095,-0.0185,-0.0187,-0.0188,0,-0.0753,-0.0734,-0.072,-0.0717,-0.0711,-0.0703,-0.0702,-0.0676,-0.0667,-0.0617,-0.0599,-0.0527,-0.049,-0.0394,-0.0302,-0.0317,-0.016,-0.0161,-0.0062,-0.0059,0.0029,0.0037,0.0188,-0.0055,-0.0056,-0.0056,-0.0056,0,-0.073,-0.072,-0.0721,-0.072,-0.0725,-0.0713,-0.0711,-0.0696,-0.0672,-0.0664,-0.0606,-0.0573,-0.0467,-0.0374,-0.0284,-0.0138,-0.0135,-0.0049,-0.0017,-0.001,-0.0008,0.0151,0.0192,-0.0051,-0.0052,-0.0053,-0.0054,0,-0.0719,-0.0708,-0.0711,-0.0716,-0.0722,-0.0733,-0.0746,-0.0745,-0.0713,-0.0698,-0.0684,-0.0597,-0.047,-0.0353,-0.019,-0.0112,0.0103,0.0077,0.0072,0.0101,0.0287,0.0319,0.0532,0.0602,0.0214,0.0216,0.0217,0,-0.0704,-0.0702,-0.073,-0.0751,-0.0757,-0.0774,-0.0789,-0.0773,-0.0775,-0.0711,-0.0705,-0.058,-0.0491,-0.0243,-0.0075,0.0115,0.0193,0.0248,0.0222,0.0319,0.038,0.0403,0.0448,0.0294,0.0296,0.0297,0.0299,0,-0.0702,-0.0717,-0.0736,-0.0781,-0.0806,-0.0834,-0.085,-0.086,-0.0833,-0.0796,-0.0721,-0.0637,-0.0399,-0.0179,0.0063,0.0177,0.0338,0.0284,0.0401,0.0476,0.05,0.0575,0.0179,0.0312,0.0311,0.031,0.0309,0.0308,-0.0714,-0.074,-0.0773,-0.0815,-0.0848,-0.0882,-0.0898,-0.0898,-0.0884,-0.0821,-0.074,-0.059,-0.0276,0.007,0.0207,0.0499,0.047,0.058,0.0618,0.0638,0.0692,0.0319,0.0471,0.0471,0.047,0.047,0.047,0,-0.0727,-0.0761,-0.0805,-0.0856,-0.0894,-0.09,-0.0928,-0.0921,-0.0894,-0.0815,-0.0718,-0.0385,-0.0055,0.0245,0.0648,0.0815,0.0852,0.0899,0.0946,0.098,0.0677,0.0664,0.0846,0.0846,0.0846,0.0846,0.0846,0.0846,-0.0737,-0.0783,-0.0809,-0.0876,-0.091,-0.0939,-0.095,-0.0918,-0.0862,-0.0698,-0.0526,-0.0401,0.0034,0.0692,0.1081,0.1125,0.1264,0.1259,0.1333,0.112,0.1092,0.1066,0.1066,0.1329,0.133,0.1627,0.163,0.1632]}],[{"header":{"parameterUnit":"m.s-1","parameterCategory":2,"la1":30.2991,"la2":30.254,"lo1":-89.0895,"lo2":-89.0444,"dy":0.0017,"dx":0.0017,"nx":28,"ny":28,"refTime":"2025-01-01T09:00:00:Z","depth":"2","parameterNumber":2,"parameterNumberName":"U-component_of_CURRENTS"},"data":[0,0,0,0,0,0,0,0,0,0,0,0,0,0,0,0,0,0,0,0,0,0,0,0,0,0,0,0,0,0,0,0,0,0,0,0,0,0,0,0,0,0,0,0,0,0,0,0,0,0,0,0,0,0,0,0,0,0,-0.2066,-0.2066,0,-0.2055,-0.2055,-0.2055,-0.2054,-0.2055,-0.2055,-0.2055,-0.2095,-0.2096,-0.2097,0,0,0,0,0,0,0,0,0,0,0,0,0,-0.2021,-0.2022,-0.2066,-0.2066,-0.2066,-0.2055,-0.2055,-0.2054,-0.2054,-0.2055,-0.2055,-0.2055,-0.2095,-0.2096,-0.2097,0,0,0,0,0,0,0,0,0,0,0,0,0,-0.2027,-0.2022,-0.2066,-0.2066,-0.2066,-0.2055,-0.2055,-0.2054,-0.2054,-0.2055,-0.2055,-0.2056,-0.2094,-0.2096,-0.2097,-0.2095,0,0,-0.21,-0.2101,0,0,0,0,0,0,0,0,-0.2027,-0.2028,-0.2066,-0.2066,-0.2066,-0.2058,-0.2053,-0.2071,-0.2054,-0.2057,-0.2055,-0.2056,-0.2088,-0.209,-0.2084,-0.2097,-0.2099,-0.21,-0.2101,-0.2102,-0.2102,0,0,0,0,0,0,0,-0.2026,-0.2029,-0.206,-0.2066,-0.2066,-0.2044,-0.2046,-0.2056,-0.207,-0.2057,-0.2057,-0.2058,-0.2088,-0.2082,-0.2085,-0.21,-0.21,-0.2101,-0.2102,-0.2103,-0.2148,-0.2148,0,0,0,0,0,0,-0.2034,-0.2029,-0.206,-0.206,-0.2049,-0.2045,-0.2046,-0.2059,-0.2069,-0.2071,-0.2058,-0.2058,-0.208,-0.2083,-0.2086,-0.2106,-0.2102,-0.2103,-0.2103,-0.2147,-0.2148,-0.2148,0,0,0,0,0,0,-0.2033,-0.2038,-0.2061,-0.2044,-0.2046,-0.2046,-0.2059,-0.2058,-0.2071,-0.2069,-0.2072,-0.2073,-0.2081,-0.2085,-0.2097,-0.2107,-0.2103,-0.2104,-0.2147,-0.2147,-0.2148,-0.2133,0,0,0,0,0,0,-0.2032,-0.2038,-0.2045,-0.2045,-0.2047,-0.2065,-0.2059,-0.2058,-0.207,-0.2071,-0.2083,-0.2086,-0.2081,-0.2095,-0.2098,-0.2109,-0.2105,-0.2146,-0.2147,-0.2148,-0.2133,-0.2133,-0.2134,0,0,0,0,0,-0.2031,-0.2026,-0.2045,-0.2049,-0.2059,-0.2065,-0.2064,-0.2063,-0.2071,-0.2076,-0.2077,-0.2086,-0.2104,-0.2096,-0.2099,-0.2111,-0.2146,-0.2147,-0.2148,-0.2133,-0.2133,-0.2134,0,0,0,0,0,0,-0.2,-0.2026,-0.2047,-0.205,-0.2068,-0.2066,-0.206,-0.2075,-0.2079,-0.208,-0.2086,-0.2088,-0.2107,-0.2112,-0.2104,-0.2128,-0.2129,-0.2131,-0.2117,-0.2117,-0.2118,-0.2115,-0.2106,0,0,0,0,0,-0.2003,-0.2013,-0.2039,-0.2044,-0.2052,-0.2066,-0.2068,-0.2077,-0.2082,-0.2084,-0.2089,-0.2098,-0.2112,-0.2117,-0.2126,-0.2135,-0.212,-0.2148,-0.2148,-0.2148,-0.215,-0.2124,-0.2121,-0.2152,-0.2152,-0.2152,0,0,-0.1989,-0.2008,-0.2012,-0.204,-0.2049,-0.2052,-0.2068,-0.2075,-0.2077,-0.2089,-0.2084,-0.2103,-0.2117,-0.2122,-0.2132,-0.2128,-0.213,-0.215,-0.215,-0.2151,-0.2125,-0.2122,-0.2119,-0.2153,-0.2153,-0.2153,0,0,-0.196,-0.1991,-0.1988,-0.2006,-0.2031,-0.2043,-0.2055,-0.2068,-0.2073,-0.2082,-0.2091,-0.211,-0.2124,-0.2128,-0.2136,-0.2147,-0.2137,-0.2162,-0.2154,-0.2129,-0.2126,-0.2123,-0.2087,-0.2081,-0.2156,-0.2156,-0.2156,0,-0.1939,-0.1951,-0.1987,-0.1989,-0.1997,-0.2044,-0.2042,-0.2053,-0.2066,-0.2072,-0.208,-0.2107,-0.2123,-0.2133,-0.214,-0.2146,-0.2127,-0.2149,-0.2127,-0.2124,-0.2121,-0.2085,-0.2078,-0.2155,-0.2156,-0.2156,-0.2156,0,-0.1909,-0.1922,-0.1919,-0.1947,-0.1964,-0.1968,-0.2,-0.2015,-0.2038,-0.2052,-0.2075,-0.2091,-0.2105,-0.2123,-0.2137,-0.2136,-0.2126,-0.2132,-0.212,-0.2116,-0.2079,-0.2073,-0.2155,-0.2155,-0.2155,-0.2155,0,0,-0.1845,-0.1889,-0.1889,-0.1898,-0.1943,-0.1949,-0.1966,-0.1991,-0.1999,-0.2026,-0.2028,-0.2067,-0.2089,-0.21,-0.2121,-0.2113,-0.2079,-0.2117,-0.2116,-0.2071,-0.2011,-0.1947,-0.1934,-0.2077,-0.2076,-0.2075,-0.1988,0,-0.1808,-0.1803,-0.1842,-0.1841,-0.184,-0.1897,-0.1907,-0.1941,-0.1973,-0.1984,-0.2023,-0.2036,-0.2075,-0.2084,-0.2083,-0.2091,-0.2064,-0.2102,-0.2032,-0.2029,-0.1964,-0.1925,-0.18,-0.1707,-0.1981,-0.198,-0.1979,0,-0.1754,-0.1767,-0.1755,-0.1792,-0.1798,-0.1807,-0.1843,-0.1861,-0.1907,-0.1931,-0.1963,-0.1995,-0.2012,-0.2034,-0.2022,-0.2044,-0.2024,-0.2022,-0.2018,-0.196,-0.1953,-0.176,-0.1685,-0.1968,-0.1969,-0.197,-0.1971,0,-0.1672,-0.1699,-0.1689,-0.17,-0.175,-0.1757,-0.1787,-0.1837,-0.1854,-0.1892,-0.1906,-0.1937,-0.1942,-0.194,-0.1959,-0.198,-0.1929,-0.1947,-0.1862,-0.1857,-0.1738,-0.1724,-0.1905,-0.1905,-0.1905,-0.1905,-0.1906,0,-0.1603,-0.1592,-0.1649,-0.164,-0.1639,-0.1695,-0.17,-0.1739,-0.1787,-0.1801,-0.1866,-0.1873,-0.1919,-0.1913,-0.1924,-0.1869,-0.1889,-0.1845,-0.1825,-0.1729,-0.1716,-0.1943,-0.1948,-0.1902,-0.1903,-0.1904,-0.1904,0,-0.1499,-0.1536,-0.1529,-0.158,-0.1594,-0.159,-0.1648,-0.1657,-0.1712,-0.1729,-0.1739,-0.1806,-0.1797,-0.1825,-0.1813,-0.1802,-0.1771,-0.174,-0.1623,-0.1591,-0.1723,-0.1729,-0.1623,-0.162,-0.1618,-0.1615,-0.1614,0,-0.1439,-0.1424,-0.1471,-0.1474,-0.1494,-0.1509,-0.1525,-0.1601,-0.1619,-0.1685,-0.1683,-0.1696,-0.1691,-0.1651,-0.1631,-0.1589,-0.1675,-0.1449,-0.1467,-0.17,-0.1691,-0.1702,-0.1711,-0.1298,-0.1294,-0.129,-0.1287,0,-0.1333,-0.1355,-0.1363,-0.1374,-0.1387,-0.1402,-0.1433,-0.1439,-0.1525,-0.1538,-0.1555,-0.1554,-0.153,-0.1443,-0.1399,-0.137,-0.1452,-0.1375,-0.1621,-0.14,-0.1389,-0.1383,-0.1403,-0.1256,-0.1259,-0.1262,-0.1263,-0.1265,-0.1255,-0.1244,-0.1266,-0.1265,-0.1284,-0.1285,-0.1268,-0.1312,-0.1318,-0.1332,-0.1396,-0.1362,-0.136,-0.1234,-0.1168,-0.1124,-0.1232,-0.1193,-0.1205,-0.1221,-0.1209,-0.1196,-0.1024,-0.1026,-0.1027,-0.1028,-0.1029,0,-0.1155,-0.1161,-0.1158,-0.1163,-0.1146,-0.1188,-0.1198,-0.1171,-0.1145,-0.1177,-0.1173,-0.1068,-0.1001,-0.1011,-0.0891,-0.0861,-0.0868,-0.0828,-0.0847,-0.0878,-0.0905,-0.088,-0.0606,-0.0605,-0.0604,-0.0602,0,0,-0.1105,-0.1073,-0.1077,-0.1023,-0.1025,-0.0976,-0.096,-0.0935,-0.0936,-0.0892,-0.0884,-0.0962,-0.0987,-0.0811,-0.0753,-0.0664,-0.0766,-0.0624,-0.0962,-0.1015,-0.1041,-0.111,-0.1104,0,0,0,0,0]},{"header":{"parameterUnit":"m.s-1","parameterCategory":2,"la1":30.2991,"la2":30.254,"lo1":-89.0895,"lo2":-89.0444,"dy":0.0017,"dx":0.0017,"nx":28,"ny":28,"refTime":"2025-01-01T09:00:00:Z","depth":"2","parameterNumber":3,"parameterNumberName":"V-component_of_CURRENTS"},"data":[0,0,0,0,0,0,0,0,0,0,0,0,0,0,0,0,0,0,0,0,0,0,0,0,0,0,0,0,0,0,0,0,0,0,0,0,0,0,0,0,0,0,0,0,0,0,0,0,0,0,0,0,0,0,0,0,0,0,-0.0105,-0.0105,0,-0.0028,-0.0027,-0.0026,0.0004,0.0004,0.0003,0.0003,0.0105,0.0108,0.0111,0,0,0,0,0,0,0,0,0,0,0,0,0,-0.014,-0.014,-0.0105,-0.0105,-0.0104,-0.0029,-0.0027,-0.0026,0.0004,0.0004,0.0003,0.0003,0.0104,0.0107,0.0111,0,0,0,0,0,0,0,0,0,0,0,0,0,-0.0099,-0.014,-0.0105,-0.0081,-0.0078,-0.0029,-0.0027,-0.0026,0.0004,0.0004,0.0003,0.0003,0.0102,0.0107,0.0111,0.0151,0,0,0.0125,0.0127,0,0,0,0,0,0,0,0,-0.0101,-0.0097,-0.0085,-0.0083,-0.0079,-0.0024,-0.0003,0.0034,0.0005,-0.0025,0.0003,0.0002,0.0063,0.0071,0.0089,0.0156,0.016,0.0126,0.0129,0.0131,0.0132,0,0,0,0,0,0,0,-0.0104,-0.01,-0.0073,-0.0085,-0.0081,-0.0045,-0.004,0.0005,0.0023,-0.0022,-0.002,-0.0015,0.0065,0.0085,0.0092,0.0162,0.0126,0.013,0.0133,0.0134,0.0233,0.0233,0,0,0,0,0,0,-0.0122,-0.0103,-0.0075,-0.0071,-0.0094,-0.0044,-0.0039,-0.004,0.0022,0.0031,-0.0015,-0.0014,0.0077,0.0086,0.0095,0.011,0.0131,0.0135,0.0138,0.0233,0.0233,0.0233,0,0,0,0,0,0,-0.0123,-0.012,-0.0078,-0.0086,-0.0079,-0.0044,-0.0044,-0.0038,-0.0033,0.0028,0.0037,-0.0019,0.0077,0.0089,0.013,0.0115,0.0137,0.0141,0.0233,0.0233,0.0233,0.0161,0,0,0,0,0,0,-0.0124,-0.0121,-0.0132,-0.0088,-0.0079,-0.0064,-0.0044,-0.0036,-0.0029,-0.0027,0.0028,0.0037,0.0077,0.0123,0.0134,0.0122,0.0145,0.0233,0.0233,0.0233,0.0164,0.0159,0.0154,0,0,0,0,0,-0.0126,-0.0136,-0.0133,-0.013,-0.0094,-0.0064,-0.0057,-0.0031,-0.0029,-0.0028,0.0013,0.0035,0.0129,0.0127,0.014,0.0129,0.0234,0.0233,0.0233,0.0166,0.016,0.0154,0,0,0,0,0,0,-0.0161,-0.0133,-0.0129,-0.0133,-0.0109,-0.006,-0.0056,-0.0042,-0.0008,-0.0007,0.0044,0.0057,0.0083,0.012,0.0117,0.0156,0.0181,0.0183,0.0125,0.012,0.0115,0.0098,0.0149,0,0,0,0,0,-0.0174,-0.0177,-0.0142,-0.015,-0.0137,-0.0101,-0.0089,-0.0072,-0.0034,-0.0022,0.0019,0.0061,0.0096,0.0118,0.0158,0.0188,0.022,0.0187,0.0182,0.0177,0.0174,0.0212,0.0209,0.0232,0.0232,0.0232,0,0,-0.0189,-0.0177,-0.0178,-0.0157,-0.0135,-0.0121,-0.0095,-0.008,-0.0071,-0.0014,0.0012,0.0047,0.01,0.0129,0.0144,0.0157,0.0188,0.0177,0.0173,0.0171,0.0211,0.0209,0.0207,0.0232,0.0232,0.0232,0,0,-0.0216,-0.021,-0.0216,-0.0197,-0.0173,-0.0146,-0.0149,-0.0106,-0.0089,-0.0059,-0.0021,0.0005,0.0067,0.0099,0.0123,0.0118,0.0159,0.0126,0.0093,0.0129,0.0127,0.0126,0.016,0.0163,0.0126,0.0126,0.0125,0,-0.0237,-0.0243,-0.0214,-0.0211,-0.0203,-0.0163,-0.0165,-0.0135,-0.0087,-0.0075,-0.0063,0.0011,0.005,0.0083,0.0078,0.0105,0.0135,0.0107,0.0121,0.0121,0.0121,0.0157,0.016,0.0122,0.0122,0.0123,0.0123,0,-0.026,-0.0266,-0.0266,-0.0253,-0.0239,-0.0234,-0.0191,-0.0175,-0.0155,-0.0126,-0.0096,-0.0039,0.0001,0.0013,0.0046,0.0062,0.0085,0.0107,0.0131,0.0114,0.0153,0.0158,0.0117,0.0118,0.0119,0.012,0,0,-0.0307,-0.0288,-0.0292,-0.0294,-0.0263,-0.0253,-0.0237,-0.0211,-0.0205,-0.0161,-0.0153,-0.0099,-0.0074,-0.0045,-0.0004,0.0026,0.0047,0.006,0.0064,0.0086,0.0128,0.0149,0.0157,0.0072,0.0072,0.0073,0.0153,0,-0.0339,-0.035,-0.0331,-0.0342,-0.034,-0.0304,-0.0294,-0.0265,-0.0233,-0.0208,-0.0158,-0.0128,-0.0092,-0.0078,-0.0045,0.0027,0.0058,0.0024,0.0149,0.0153,0.0166,0.0163,0.0152,0.0223,0.0158,0.0159,0.016,0,-0.0368,-0.0374,-0.0389,-0.0386,-0.0383,-0.0381,-0.0364,-0.0349,-0.03,-0.0278,-0.0241,-0.0193,-0.0142,-0.0112,-0.0005,-0.0028,0.004,0.0094,0.0099,0.0148,0.0183,0.0233,0.0236,0.0169,0.0168,0.0168,0.0167,0,-0.0409,-0.0415,-0.0434,-0.043,-0.0414,-0.0419,-0.0411,-0.0374,-0.0363,-0.0317,-0.0305,-0.0236,-0.0197,-0.0111,0.0002,0.0001,0.0122,0.0139,0.0223,0.0225,0.0256,0.026,0.0211,0.0211,0.0211,0.0211,0.021,0,-0.0443,-0.0458,-0.0454,-0.0461,-0.0487,-0.0461,-0.0475,-0.0453,-0.0423,-0.0413,-0.0344,-0.0314,-0.0195,-0.0108,-0.0011,0.0122,0.0117,0.0216,0.0247,0.0231,0.0231,0.0217,0.0216,0.0214,0.0213,0.0212,0.0212,0,-0.0473,-0.0471,-0.0492,-0.0496,-0.0501,-0.0517,-0.0519,-0.0522,-0.0488,-0.0472,-0.0459,-0.0366,-0.0251,-0.0124,0.0026,0.011,0.0232,0.028,0.025,0.0276,0.0313,0.0308,0.0379,0.0381,0.0382,0.0383,0.0384,0,-0.0483,-0.0496,-0.0522,-0.0543,-0.0546,-0.0566,-0.0578,-0.0557,-0.0556,-0.0498,-0.0491,-0.0381,-0.0293,-0.0068,0.0096,0.0271,0.0271,0.0361,0.0357,0.0307,0.0331,0.0324,0.0317,0.0371,0.0372,0.0372,0.0373,0,-0.0504,-0.0516,-0.0536,-0.0582,-0.0606,-0.063,-0.0643,-0.0653,-0.0621,-0.0588,-0.0523,-0.0447,-0.0234,-0.0042,0.0179,0.0282,0.033,0.0378,0.0346,0.0324,0.0305,0.0326,0.0319,0.0378,0.0377,0.0377,0.0377,0.0376,-0.052,-0.0547,-0.0579,-0.062,-0.0651,-0.0682,-0.0697,-0.0694,-0.068,-0.062,-0.055,-0.0414,-0.0234,0.0084,0.0242,0.0393,0.0391,0.0437,0.0434,0.043,0.0408,0.0392,0.0477,0.0477,0.0477,0.0477,0.0477,0,-0.0537,-0.057,-0.0614,-0.0663,-0.0699,-0.0705,-0.0728,-0.072,-0.0694,-0.0621,-0.0533,-0.0325,-0.0106,0.0081,0.0325,0.0466,0.0454,0.0487,0.0446,0.0441,0.0436,0.0413,0.0484,0.0485,0.0485,0.0485,0,0,-0.0548,-0.0595,-0.062,-0.0685,-0.0719,-0.0748,-0.0757,-0.0724,-0.0669,-0.0583,-0.0479,-0.034,-0.0106,0.0065,0.0244,0.0371,0.0367,0.0383,0.0366,0.0291,0.0285,0.04,0.0359,0,0,0,0,0]}],[{"header":{"parameterUnit":"m.s-1","parameterCategory":2,"la1":30.2991,"la2":30.254,"lo1":-89.0895,"lo2":-89.0444,"dy":0.0017,"dx":0.0017,"nx":28,"ny":28,"refTime":"2025-01-01T09:00:00:Z","depth":"4","parameterNumber":2,"parameterNumberName":"U-component_of_CURRENTS"},"data":[0,0,0,0,0,0,0,0,0,0,0,0,0,0,0,0,0,0,0,0,0,0,0,0,0,0,0,0,0,0,0,0,0,0,0,0,0,0,0,0,0,0,0,0,0,0,0,0,0,0,0,0,0,0,0,0,0,0,-0.1114,-0.1115,0,-0.1171,-0.1171,-0.1172,-0.1193,-0.1193,-0.1193,-0.1193,-0.1204,-0.1204,-0.1205,0,0,0,0,0,0,0,0,0,0,0,0,0,-0.1042,-0.1043,-0.1114,-0.1115,-0.1116,-0.1171,-0.1171,-0.1172,-0.1193,-0.1193,-0.1193,-0.1193,-0.1204,-0.1204,-0.1205,0,0,0,0,0,0,0,0,0,0,0,0,0,-0.1082,-0.1043,-0.1114,-0.1134,-0.1136,-0.1171,-0.1171,-0.1172,-0.1193,-0.1193,-0.1193,-0.1193,-0.1204,-0.1204,-0.1205,-0.1209,0,0,-0.1206,-0.1206,0,0,0,0,0,0,0,0,-0.1079,-0.1084,-0.113,-0.1133,-0.1136,-0.1176,-0.115,-0.1183,-0.1193,-0.117,-0.1193,-0.1192,-0.1192,-0.1193,-0.1202,-0.1209,-0.121,-0.1206,-0.1207,-0.1207,-0.1207,0,0,0,0,0,0,0,-0.1077,-0.1082,-0.1135,-0.1131,-0.1134,-0.1147,-0.1152,-0.1157,-0.1178,-0.1172,-0.1174,-0.1183,-0.1192,-0.1202,-0.1202,-0.121,-0.1206,-0.1207,-0.1207,-0.1207,-0.1286,-0.1287,0,0,0,0,0,0,-0.1072,-0.1079,-0.1133,-0.1137,-0.1109,-0.1148,-0.1154,-0.1162,-0.1179,-0.1182,-0.1183,-0.1183,-0.1201,-0.1202,-0.1203,-0.1254,-0.1207,-0.1207,-0.1208,-0.1284,-0.1286,-0.1288,0,0,0,0,0,0,-0.107,-0.1076,-0.1131,-0.1111,-0.1119,-0.1149,-0.1158,-0.1163,-0.1191,-0.1188,-0.119,-0.1208,-0.1201,-0.1202,-0.1221,-0.1253,-0.1207,-0.1208,-0.1282,-0.1285,-0.1287,-0.1328,0,0,0,0,0,0,-0.1068,-0.1075,-0.1094,-0.111,-0.112,-0.1162,-0.1159,-0.1164,-0.1197,-0.1199,-0.1211,-0.1211,-0.1201,-0.122,-0.1221,-0.1253,-0.1208,-0.1279,-0.1283,-0.1286,-0.1324,-0.1331,-0.1338,0,0,0,0,0,-0.1065,-0.1088,-0.1095,-0.1102,-0.1139,-0.1163,-0.1169,-0.1189,-0.1198,-0.1214,-0.1221,-0.1211,-0.1243,-0.1221,-0.1222,-0.1255,-0.1278,-0.1282,-0.1286,-0.1321,-0.133,-0.1337,0,0,0,0,0,0,-0.107,-0.1093,-0.11,-0.113,-0.115,-0.1168,-0.1192,-0.1203,-0.1224,-0.123,-0.1224,-0.1224,-0.1254,-0.1253,-0.1229,-0.1291,-0.1263,-0.1268,-0.129,-0.1298,-0.1305,-0.13,-0.1209,0,0,0,0,0,-0.1079,-0.1098,-0.1119,-0.1144,-0.1158,-0.1179,-0.1198,-0.1209,-0.1224,-0.1235,-0.1243,-0.1257,-0.127,-0.1281,-0.1289,-0.1318,-0.1304,-0.1345,-0.1352,-0.1358,-0.1357,-0.137,-0.1377,-0.1301,-0.1301,-0.1301,0,0,-0.1087,-0.1103,-0.1115,-0.1147,-0.1166,-0.1192,-0.119,-0.1222,-0.1248,-0.1231,-0.1273,-0.1277,-0.1282,-0.1313,-0.1329,-0.1317,-0.1371,-0.1363,-0.1367,-0.1364,-0.1375,-0.1382,-0.1388,-0.1304,-0.1303,-0.1303,0,0,-0.1105,-0.1128,-0.115,-0.117,-0.1203,-0.1217,-0.1231,-0.1259,-0.1278,-0.1309,-0.1309,-0.1332,-0.1355,-0.1367,-0.1374,-0.1427,-0.1403,-0.144,-0.1473,-0.1486,-0.1491,-0.1496,-0.1477,-0.148,-0.1448,-0.1448,-0.1448,0,-0.1118,-0.1146,-0.1161,-0.1187,-0.1212,-0.123,-0.1261,-0.1284,-0.1315,-0.1333,-0.1329,-0.1376,-0.1381,-0.142,-0.1438,-0.1441,-0.1431,-0.1437,-0.1492,-0.1497,-0.1501,-0.148,-0.1483,-0.145,-0.145,-0.145,-0.1449,0,-0.1146,-0.1178,-0.1194,-0.1232,-0.1258,-0.1289,-0.1317,-0.1349,-0.1372,-0.1389,-0.1433,-0.144,-0.1467,-0.1482,-0.1473,-0.1518,-0.1494,-0.1493,-0.1465,-0.1511,-0.1486,-0.1488,-0.1454,-0.1453,-0.1452,-0.1451,0,0,-0.1146,-0.1204,-0.1212,-0.1234,-0.1287,-0.1304,-0.1356,-0.14,-0.1429,-0.1462,-0.1498,-0.1533,-0.1536,-0.1545,-0.1548,-0.1563,-0.1581,-0.1544,-0.1544,-0.1513,-0.1586,-0.1472,-0.1463,-0.1588,-0.1589,-0.159,-0.1551,0,-0.1167,-0.1217,-0.1248,-0.1298,-0.1323,-0.1362,-0.1403,-0.1443,-0.1474,-0.151,-0.1535,-0.1563,-0.1561,-0.1573,-0.1593,-0.1582,-0.159,-0.159,-0.1556,-0.1555,-0.1439,-0.1463,-0.1593,-0.1552,-0.1553,-0.1553,-0.1553,0,-0.1179,-0.1211,-0.1265,-0.1322,-0.1339,-0.1374,-0.1437,-0.1475,-0.1529,-0.1552,-0.1591,-0.1601,-0.1634,-0.1622,-0.1633,-0.1632,-0.1614,-0.1602,-0.1601,-0.148,-0.1445,-0.1502,-0.1556,-0.1556,-0.1556,-0.1556,-0.1555,0,-0.1147,-0.122,-0.1263,-0.1284,-0.1353,-0.1388,-0.1429,-0.1487,-0.1513,-0.1575,-0.1588,-0.1636,-0.1643,-0.1652,-0.1629,-0.1635,-0.162,-0.1624,-0.1504,-0.1495,-0.1589,-0.1585,-0.163,-0.163,-0.163,-0.163,-0.163,0,-0.1139,-0.1172,-0.1252,-0.1268,-0.1312,-0.1371,-0.1417,-0.1464,-0.1521,-0.1538,-0.1601,-0.1606,-0.165,-0.1645,-0.1635,-0.156,-0.1625,-0.1502,-0.1481,-0.1607,-0.1605,-0.1589,-0.1585,-0.1629,-0.1629,-0.1629,-0.163,0,-0.1079,-0.1143,-0.1183,-0.1266,-0.1292,-0.1318,-0.1392,-0.1417,-0.1484,-0.1507,-0.1524,-0.1579,-0.1567,-0.1585,-0.1581,-0.1537,-0.15,-0.1459,-0.157,-0.1557,-0.1365,-0.1364,-0.1321,-0.1317,-0.1313,-0.131,-0.1308,0,-0.1049,-0.1067,-0.1155,-0.1177,-0.1215,-0.1266,-0.1296,-0.1381,-0.14,-0.1469,-0.1463,-0.1484,-0.1505,-0.1399,-0.1443,-0.1406,-0.1395,-0.1364,-0.1386,-0.1351,-0.1335,-0.134,-0.1343,-0.1302,-0.1301,-0.13,-0.1299,0,-0.0977,-0.102,-0.1052,-0.1098,-0.1139,-0.1172,-0.1222,-0.1223,-0.1308,-0.138,-0.1354,-0.1344,-0.1322,-0.1317,-0.1287,-0.1272,-0.1383,-0.1327,-0.1334,-0.1355,-0.1328,-0.1316,-0.1324,-0.1287,-0.1288,-0.129,-0.129,0,-0.0918,-0.0924,-0.0976,-0.1003,-0.1052,-0.1061,-0.1102,-0.1119,-0.1147,-0.123,-0.1215,-0.1247,-0.1299,-0.1245,-0.1226,-0.1191,-0.1181,-0.1151,-0.1168,-0.1182,-0.1156,-0.1102,-0.0966,0,0,0,0,0,-0.0853,-0.0854,-0.0876,-0.0909,-0.0953,-0.0979,-0.1044,-0.109,-0.1169,-0.1113,-0.116,-0.1137,-0.1105,-0.1129,-0.1062,-0.1169,-0.119,-0.1088,-0.1166,-0.1217,-0.1232,-0.1215,0,0,0,0,0,0,-0.0812,-0.0832,-0.0843,-0.082,-0.0822,-0.0861,-0.0896,-0.0956,-0.0932,-0.1014,-0.0999,-0.1062,-0.1046,-0.1115,-0.1035,-0.1041,-0.1066,-0.1115,-0.1112,-0.1209,-0.1222,-0.1234,-0.1222,0,0,0,0,0]},{"header":{"parameterUnit":"m.s-1","parameterCategory":2,"la1":30.2991,"la2":30.254,"lo1":-89.0895,"lo2":-89.0444,"dy":0.0017,"dx":0.0017,"nx":28,"ny":28,"refTime":"2025-01-01T09:00:00:Z","depth":"4","parameterNumber":3,"parameterNumberName":"V-component_of_CURRENTS"},"data":[0,0,0,0,0,0,0,0,0,0,0,0,0,0,0,0,0,0,0,0,0,0,0,0,0,0,0,0,0,0,0,0,0,0,0,0,0,0,0,0,0,0,0,0,0,0,0,0,0,0,0,0,0,0,0,0,0,0,0.0065,0.0066,0,0.0108,0.0109,0.011,0.0142,0.0142,0.0142,0.0142,0.0199,0.02,0.0201,0,0,0,0,0,0,0,0,0,0,0,0,0,0.0071,0.007,0.0065,0.0066,0.0066,0.0108,0.0109,0.011,0.0142,0.0142,0.0142,0.0142,0.0198,0.02,0.0202,0,0,0,0,0,0,0,0,0,0,0,0,0,0.0089,0.007,0.0065,0.0085,0.0087,0.0108,0.0109,0.011,0.0142,0.0142,0.0142,0.0142,0.0198,0.02,0.0202,0.0214,0,0,0.0208,0.0209,0,0,0,0,0,0,0,0,0.0088,0.0089,0.0082,0.0084,0.0086,0.0118,0.0131,0.0144,0.0142,0.0124,0.0142,0.0143,0.0171,0.0175,0.0187,0.0216,0.0219,0.0209,0.021,0.0211,0.0212,0,0,0,0,0,0,0,0.0086,0.0087,0.0085,0.0082,0.0085,0.0112,0.0114,0.0134,0.0149,0.0126,0.0128,0.0128,0.0173,0.0185,0.0188,0.0219,0.0209,0.0211,0.0212,0.0213,0.0268,0.0268,0,0,0,0,0,0,0.0072,0.0086,0.0084,0.0086,0.0084,0.0111,0.0114,0.011,0.0149,0.0154,0.0128,0.0129,0.0181,0.0186,0.019,0.0205,0.0211,0.0213,0.0214,0.0268,0.0268,0.0268,0,0,0,0,0,0,0.0072,0.0071,0.0082,0.0085,0.0088,0.011,0.0106,0.011,0.0118,0.0149,0.0155,0.013,0.0181,0.0187,0.0204,0.0207,0.0214,0.0216,0.0268,0.0268,0.0268,0.0235,0,0,0,0,0,0,0.0072,0.0071,0.0063,0.0084,0.0087,0.0087,0.0105,0.0111,0.0117,0.012,0.0153,0.0159,0.0182,0.02,0.0206,0.021,0.0218,0.0267,0.0268,0.0268,0.0236,0.0234,0.0232,0,0,0,0,0,0.0072,0.0059,0.0062,0.0062,0.0075,0.0087,0.0091,0.011,0.0117,0.0118,0.0141,0.0158,0.0207,0.0202,0.0209,0.0214,0.0267,0.0268,0.0268,0.0236,0.0234,0.0232,0,0,0,0,0,0,0.0053,0.0061,0.0066,0.0054,0.0066,0.0091,0.0093,0.0104,0.0124,0.0126,0.0157,0.0164,0.018,0.0201,0.0195,0.0231,0.0241,0.0243,0.0215,0.0213,0.0211,0.0198,0.0219,0,0,0,0,0,0.0045,0.0038,0.0052,0.0042,0.0047,0.0069,0.0075,0.0086,0.0105,0.0114,0.0139,0.0166,0.0188,0.0202,0.0224,0.0242,0.0257,0.0251,0.0249,0.0247,0.0242,0.0264,0.0263,0.0269,0.0269,0.0269,0,0,0.0035,0.0037,0.0033,0.0038,0.005,0.0053,0.0073,0.0078,0.0084,0.0117,0.0134,0.0158,0.0191,0.0211,0.0221,0.0228,0.0255,0.0248,0.0246,0.0242,0.0264,0.0264,0.0263,0.027,0.027,0.027,0,0,0.0011,0.0014,0.0002,0.0011,0.002,0.0036,0.0034,0.0058,0.0073,0.0088,0.0115,0.0139,0.0174,0.0201,0.0218,0.022,0.0243,0.0229,0.0213,0.0235,0.0234,0.0234,0.0254,0.0255,0.0231,0.0231,0.0231,0,-0.0004,-0.002,0.0,-0.0006,-0.0006,0.0025,0.0014,0.0038,0.0065,0.0073,0.0088,0.0139,0.0171,0.0194,0.0201,0.0216,0.0229,0.0217,0.0231,0.0231,0.0232,0.0252,0.0255,0.023,0.023,0.023,0.023,0,-0.0034,-0.0045,-0.005,-0.0049,-0.0042,-0.0048,-0.0017,-0.0003,0.0018,0.0041,0.0067,0.0113,0.014,0.0161,0.0184,0.0203,0.0211,0.0223,0.0233,0.0229,0.0251,0.0254,0.0228,0.0228,0.0229,0.0229,0,0,-0.0077,-0.0075,-0.0079,-0.0087,-0.007,-0.0069,-0.0055,-0.004,-0.0037,0.0007,0.0012,0.007,0.0094,0.0115,0.015,0.0179,0.0201,0.02,0.0202,0.0213,0.0244,0.0235,0.0238,0.0212,0.0212,0.0212,0.0259,0,-0.0113,-0.0142,-0.0128,-0.0149,-0.0159,-0.0128,-0.0121,-0.0097,-0.0067,-0.0047,0.0009,0.0031,0.0077,0.0089,0.0125,0.0178,0.0207,0.0187,0.0252,0.0254,0.0241,0.024,0.0213,0.0262,0.0262,0.0263,0.0263,0,-0.0153,-0.0167,-0.0199,-0.0206,-0.0208,-0.0212,-0.0203,-0.0191,-0.0146,-0.0123,-0.0085,-0.0041,0.0011,0.0049,0.0138,0.012,0.0177,0.0224,0.0227,0.023,0.025,0.0268,0.0269,0.0269,0.0268,0.0268,0.0267,0,-0.0199,-0.022,-0.0252,-0.0253,-0.0248,-0.0258,-0.0253,-0.0219,-0.021,-0.0172,-0.0161,-0.0096,-0.0062,0.0013,0.0121,0.0124,0.0217,0.0234,0.028,0.028,0.0289,0.0289,0.0292,0.0292,0.0292,0.0292,0.0292,0,-0.0245,-0.0269,-0.0277,-0.029,-0.0325,-0.0305,-0.0326,-0.0306,-0.0281,-0.0272,-0.0206,-0.0182,-0.0069,0.0005,0.0096,0.0195,0.0198,0.0273,0.029,0.0275,0.0273,0.0292,0.0291,0.0294,0.0293,0.0293,0.0293,0,-0.028,-0.029,-0.0323,-0.0337,-0.0345,-0.0366,-0.0372,-0.0377,-0.0351,-0.0338,-0.0328,-0.0244,-0.015,-0.0033,0.0094,0.0161,0.0257,0.0293,0.0265,0.028,0.0312,0.0309,0.0339,0.0339,0.0339,0.0339,0.0339,0,-0.0298,-0.0319,-0.0356,-0.038,-0.0388,-0.0415,-0.0429,-0.0414,-0.0411,-0.0369,-0.0362,-0.0277,-0.0207,-0.0037,0.008,0.0237,0.0267,0.0307,0.0315,0.0302,0.0316,0.0313,0.031,0.0339,0.0339,0.0339,0.0339,0,-0.0321,-0.0338,-0.0362,-0.0415,-0.0444,-0.0471,-0.0487,-0.0492,-0.0466,-0.0446,-0.038,-0.0286,-0.018,-0.0042,0.0079,0.0195,0.0272,0.0308,0.0309,0.0317,0.0303,0.0315,0.0313,0.0339,0.0339,0.0339,0.0339,0,-0.0334,-0.036,-0.0398,-0.044,-0.0482,-0.0509,-0.0518,-0.0505,-0.0496,-0.044,-0.0421,-0.0299,-0.0224,-0.0063,0.0048,0.0157,0.0188,0.0221,0.0227,0.0229,0.0185,0.015,0.0149,0,0,0,0,0,-0.0341,-0.0374,-0.0419,-0.0467,-0.0508,-0.0527,-0.0545,-0.0543,-0.0523,-0.0479,-0.0445,-0.0341,-0.017,-0.0096,0.0012,0.0043,0.0197,0.0171,0.0236,0.0339,0.0339,0.0306,0,0,0,0,0,0,-0.0349,-0.0395,-0.042,-0.0474,-0.0508,-0.0546,-0.0558,-0.0546,-0.0512,-0.0478,-0.0383,-0.0323,-0.0155,-0.0229,0.0012,0.0045,0.0098,0.0256,0.0258,0.0339,0.0339,0.0339,0.0305,0,0,0,0,0]}]]